sat.trackr.live / text

‹ back to catalog

GEOSCAN 5 (RS92S5)

NORAD 64891 · 2025-155R

PAYLOAD ACTIVE UNKNOWN

§ Identity

Operator
Country
CIS
Launch date
2025-07-25
Launch site
VOSTO
Launch vehicle
Mass (kg)
RCS (m²)

Purposes: comms

External: N2YO · Heavens-Above · Gunter

§ Orbital elements

Epoch: 2026-05-25T03:57:56.882880Z

Period
93.96 min
Inclination
97.4532°
Eccentricity
0.0003790
Mean motion
15.32550229 rev/d
Perigee alt
465.6 km
Apogee alt
470.8 km
Semi-major
6,846.3 km
B*
4.5046e-4
RAAN
114.3825°
Arg perigee
259.7329°
Mean anomaly
100.3485°
Rev number
7,729

§ Raw data

GEOSCAN 5 (RS92S5)1 64891U 25155R   26145.16524170  .00014093  00000+0  45046-3 0  99982 64891  97.4532 114.3825 0003790 259.7329 100.3485 15.32550229 77290

JSON: /api/v1/satellites/64891 · /tle

For live sub-satellite position, see the globe view (requires WebGL).

§ Visibility from observer

Set your observer location to see the next 7 days of passes ≥ 10°. The values pass through the URL so the page stays shareable.

No JS? Fill the form by hand. The geolocation button needs JavaScript.

§ Radio — SatNOGS DB

ModeDescriptionDownlinkUplink
GFSK Mode U - GFSK9k6 - AX.25 Beacon and Ham Payload (Geoscan framing) 436.660 MHz

1 transmitter · refreshed weekly from db.satnogs.org